[[{"header":{"parameterUnit":"m.s-1","parameterCategory":1,"la1":30.2991,"la2":30.254,"lo1":-89.0895,"lo2":-89.0444,"dy":0.0017,"dx":0.0017,"nx":28,"ny":28,"refTime":"2025-03-30T09:00:00:Z","depth":0,"parameterNumber":2,"parameterNumberName":"U-component_of_WINDS"},"data":[0,0,0,0,0,0,0,0,0,0,0,0,0,0,0,0,0,0,0,0,0,0,0,0,0,0,0,0,0,0,0,0,0,0,0,0,0,0,0,0,0,0,0,0,0,0,0,0,0,0,0,0,0,0,0,0,0,0,-0.3201,-0.3201,0,-0.3216,-0.3217,-0.3217,-0.3242,-0.3243,-0.3243,-0.3244,-0.3259,-0.3259,-0.3259,0,0,0,0,0,0,0,0,0,0,0,0,0,-0.3193,-0.3193,-0.3201,-0.3201,-0.3201,-0.3216,-0.3217,-0.3217,-0.3242,-0.3243,-0.3244,-0.3244,-0.3259,-0.3259,-0.3259,0,0,0,0,0,0,0,0,0,0,0,0,0,-0.3201,-0.3193,-0.3201,-0.3216,-0.3217,-0.3216,-0.3217,-0.3217,-0.3242,-0.3243,-0.3244,-0.3244,-0.3259,-0.3259,-0.3259,-0.3245,0,0,-0.3259,-0.3259,0,0,0,0,0,0,0,0,-0.3201,-0.3202,-0.3214,-0.3215,-0.3217,-0.3228,-0.322,-0.3226,-0.3242,-0.3233,-0.3244,-0.3245,-0.3248,-0.3249,-0.3251,-0.3246,-0.3246,-0.3259,-0.3259,-0.3259,-0.3259,0,0,0,0,0,0,0,-0.32,-0.3201,-0.3207,-0.3214,-0.3216,-0.3222,-0.3224,-0.3221,-0.3236,-0.3234,-0.3236,-0.3237,-0.3249,-0.3251,-0.3251,-0.3246,-0.3259,-0.3259,-0.3259,-0.3259,-0.3229,-0.3229,0,0,0,0,0,0,-0.3198,-0.32,-0.3207,-0.3208,-0.321,-0.3221,-0.3223,-0.3224,-0.3237,-0.3239,-0.3236,-0.3238,-0.325,-0.3251,-0.3252,-0.3235,-0.3259,-0.3259,-0.3259,-0.323,-0.3229,-0.3228,0,0,0,0,0,0,-0.3197,-0.3198,-0.3206,-0.3205,-0.3206,-0.3221,-0.3221,-0.3224,-0.3225,-0.3239,-0.3241,-0.3235,-0.3251,-0.3252,-0.3246,-0.3236,-0.3259,-0.3259,-0.3231,-0.323,-0.3229,-0.3202,0,0,0,0,0,0,-0.3197,-0.3198,-0.3192,-0.3204,-0.3206,-0.32,-0.322,-0.3223,-0.3225,-0.3227,-0.3238,-0.324,-0.3252,-0.3246,-0.3246,-0.3236,-0.3259,-0.3232,-0.323,-0.3229,-0.3203,-0.32,-0.3196,0,0,0,0,0,-0.3197,-0.3184,-0.3192,-0.3193,-0.32,-0.32,-0.3201,-0.3214,-0.3224,-0.3219,-0.3227,-0.324,-0.3237,-0.3245,-0.3246,-0.3236,-0.3233,-0.3231,-0.3229,-0.3205,-0.32,-0.3196,0,0,0,0,0,0,-0.3171,-0.3186,-0.3195,-0.3186,-0.3191,-0.3204,-0.3198,-0.3209,-0.3211,-0.3213,-0.323,-0.3232,-0.3224,-0.3229,-0.3238,-0.3222,-0.3237,-0.3235,-0.3218,-0.3214,-0.3211,-0.3209,-0.3259,0,0,0,0,0,-0.3164,-0.3163,-0.3176,-0.3167,-0.3169,-0.3183,-0.3183,-0.3193,-0.3199,-0.3201,-0.321,-0.3215,-0.3215,-0.3215,-0.3216,-0.3205,-0.3207,-0.3198,-0.3194,-0.3191,-0.3189,-0.3183,-0.3179,-0.3223,-0.3223,-0.3223,0,0,-0.315,-0.3158,-0.3157,-0.3162,-0.3167,-0.3165,-0.3185,-0.3182,-0.318,-0.3201,-0.3196,-0.3202,-0.3209,-0.32,-0.3197,-0.3204,-0.3178,-0.3189,-0.3187,-0.3186,-0.3181,-0.3176,-0.3173,-0.3221,-0.3222,-0.3222,0,0,-0.3124,-0.313,-0.3123,-0.3128,-0.3135,-0.3144,-0.3142,-0.3153,-0.3158,-0.3153,-0.3169,-0.3167,-0.3167,-0.3171,-0.3174,-0.3148,-0.3159,-0.3148,-0.3129,-0.3123,-0.3119,-0.3116,-0.3106,-0.3103,-0.3146,-0.3146,-0.3146,0,-0.3106,-0.3103,-0.3118,-0.3114,-0.3115,-0.3134,-0.3127,-0.313,-0.3138,-0.3138,-0.3147,-0.3148,-0.3154,-0.3145,-0.3139,-0.314,-0.3138,-0.3147,-0.3119,-0.3116,-0.3113,-0.3104,-0.31,-0.3145,-0.3145,-0.3145,-0.3145,0,-0.308,-0.3078,-0.3071,-0.3078,-0.3079,-0.3073,-0.3086,-0.3086,-0.3095,-0.3103,-0.3098,-0.3105,-0.3108,-0.3107,-0.3116,-0.31,-0.3104,-0.3116,-0.3131,-0.3107,-0.3099,-0.3095,-0.3142,-0.3143,-0.3143,-0.3144,0,0,-0.3038,-0.3052,-0.3049,-0.3052,-0.3062,-0.306,-0.3055,-0.3058,-0.3056,-0.3061,-0.3057,-0.3056,-0.3066,-0.3069,-0.3079,-0.3073,-0.3051,-0.3085,-0.3085,-0.3078,-0.3033,-0.3024,-0.3019,-0.3059,-0.3059,-0.3058,-0.3032,0,-0.3013,-0.3005,-0.3018,-0.3007,-0.3005,-0.3022,-0.3018,-0.3023,-0.303,-0.3029,-0.3037,-0.3036,-0.305,-0.3052,-0.3047,-0.3055,-0.3042,-0.3057,-0.3055,-0.3054,-0.3052,-0.3015,-0.3006,-0.2981,-0.3029,-0.3028,-0.3028,0,-0.2983,-0.2986,-0.2974,-0.2984,-0.2983,-0.2979,-0.2982,-0.2981,-0.2987,-0.2993,-0.2995,-0.3007,-0.3002,-0.3017,-0.301,-0.302,-0.302,-0.3023,-0.3023,-0.3023,-0.3039,-0.3013,-0.2973,-0.2969,-0.3023,-0.3023,-0.3024,0,-0.2953,-0.2953,-0.2946,-0.2948,-0.2959,-0.2956,-0.296,-0.2967,-0.2967,-0.297,-0.297,-0.2972,-0.2973,-0.2974,-0.2986,-0.2996,-0.2977,-0.2994,-0.2981,-0.2981,-0.2976,-0.2976,-0.2935,-0.2977,-0.2977,-0.2977,-0.2977,0,-0.2923,-0.2915,-0.2933,-0.2928,-0.292,-0.2934,-0.2926,-0.2932,-0.2937,-0.2934,-0.295,-0.2946,-0.2962,-0.2961,-0.297,-0.2963,-0.2963,-0.2967,-0.2969,-0.2965,-0.2965,-0.2965,-0.2967,-0.2976,-0.2977,-0.2977,-0.2977,0,-0.2888,-0.2899,-0.2892,-0.2903,-0.2906,-0.2899,-0.2908,-0.2904,-0.2913,-0.2908,-0.2908,-0.2921,-0.292,-0.2931,-0.2933,-0.2939,-0.2927,-0.2933,-0.2925,-0.2926,-0.2913,-0.2914,-0.287,-0.2864,-0.2911,-0.291,-0.291,0,-0.2868,-0.2862,-0.2872,-0.2871,-0.2875,-0.2873,-0.2873,-0.2887,-0.2887,-0.2893,-0.2888,-0.2888,-0.2889,-0.2886,-0.2895,-0.2896,-0.2901,-0.2886,-0.2902,-0.2897,-0.29,-0.29,-0.2899,-0.2882,-0.2882,-0.2881,-0.2881,0,-0.2831,-0.2837,-0.2837,-0.2839,-0.2838,-0.284,-0.2844,-0.2842,-0.2857,-0.2856,-0.2854,-0.2855,-0.2856,-0.2855,-0.2858,-0.2862,-0.2874,-0.2876,-0.2873,-0.2868,-0.2864,-0.2865,-0.2915,-0.2877,-0.2877,-0.2877,-0.2878,-0.2878,-0.2803,-0.2798,-0.2804,-0.2803,-0.2807,-0.2809,-0.2806,-0.2813,-0.2813,-0.2814,-0.2823,-0.282,-0.2825,-0.283,-0.2833,-0.283,-0.2838,-0.2834,-0.2833,-0.2831,-0.2829,-0.2864,-0.2831,-0.2831,-0.2831,-0.2831,-0.2831,0,-0.2766,-0.2771,-0.277,-0.2774,-0.2773,-0.2784,-0.2787,-0.2786,-0.2783,-0.2787,-0.2787,-0.2786,-0.2785,-0.2794,-0.2794,-0.2791,-0.2796,-0.279,-0.2791,-0.2791,-0.2822,-0.2824,-0.2786,-0.2786,-0.2786,-0.2786,-0.2786,-0.2786,-0.2747,-0.274,-0.2746,-0.274,-0.2745,-0.2742,-0.2743,-0.2745,-0.2749,-0.2746,-0.2745,-0.2751,-0.2757,-0.2758,-0.2758,-0.276,-0.2759,-0.2752,-0.2756,-0.2785,-0.2789,-0.2793,-0.2795,-0.2752,-0.2751,-0.2725,-0.2725,-0.2725]},{"header":{"parameterUnit":"m.s-1","parameterCategory":1,"la1":30.2991,"la2":30.254,"lo1":-89.0895,"lo2":-89.0444,"dy":0.0017,"dx":0.0017,"nx":28,"ny":28,"refTime":"2025-03-30T09:00:00:Z","depth":0,"parameterNumber":3,"parameterNumberName":"V-component_of_WINDS"},"data":[0,0,0,0,0,0,0,0,0,0,0,0,0,0,0,0,0,0,0,0,0,0,0,0,0,0,0,0,0,0,0,0,0,0,0,0,0,0,0,0,0,0,0,0,0,0,0,0,0,0,0,0,0,0,0,0,0,0,5.2821,5.2821,0,5.2847,5.2848,5.2848,5.2807,5.2805,5.2804,5.2803,5.2826,5.2827,5.2829,0,0,0,0,0,0,0,0,0,0,0,0,0,5.2733,5.2735,5.2821,5.2821,5.2822,5.2847,5.2848,5.2848,5.2807,5.2805,5.2804,5.2802,5.2825,5.2827,5.283,0,0,0,0,0,0,0,0,0,0,0,0,0,5.2766,5.2735,5.2821,5.2804,5.2803,5.2847,5.2848,5.2848,5.2807,5.2805,5.2803,5.2801,5.2824,5.2827,5.283,5.289,0,0,5.2839,5.284,0,0,0,0,0,0,0,0,5.2764,5.2769,5.2807,5.2806,5.2804,5.2822,5.2825,5.2862,5.2808,5.2806,5.2802,5.28,5.2826,5.2828,5.2838,5.2891,5.2892,5.2839,5.2841,5.2842,5.2843,0,0,0,0,0,0,0,5.2762,5.2768,5.2831,5.2807,5.2806,5.2795,5.2797,5.2832,5.2827,5.2806,5.2803,5.2807,5.2825,5.2835,5.2838,5.2893,5.2839,5.2841,5.2843,5.2844,5.2999,5.3001,0,0,0,0,0,0,5.2762,5.2766,5.2831,5.2832,5.2779,5.2798,5.2801,5.2818,5.2827,5.2826,5.2808,5.2805,5.2831,5.2835,5.2839,5.2912,5.2842,5.2845,5.2846,5.2996,5.2999,5.3002,0,0,0,0,0,0,5.2761,5.2768,5.2829,5.2799,5.2806,5.2802,5.2822,5.282,5.283,5.2829,5.2827,5.282,5.283,5.2835,5.2878,5.2912,5.2846,5.2849,5.2994,5.2997,5.3,5.3057,0,0,0,0,0,0,5.2758,5.2768,5.2791,5.2799,5.2807,5.287,5.2824,5.2822,5.2836,5.2831,5.2839,5.2839,5.2828,5.2874,5.2881,5.2914,5.2851,5.2991,5.2995,5.2999,5.3052,5.3062,5.307,0,0,0,0,0,5.2755,5.2805,5.2793,5.2801,5.2837,5.2872,5.2876,5.2864,5.2839,5.2862,5.2861,5.2838,5.2907,5.2879,5.2887,5.2921,5.2988,5.2994,5.2999,5.3048,5.306,5.307,0,0,0,0,0,0,5.2799,5.2805,5.2792,5.2846,5.2859,5.2865,5.2894,5.2877,5.2896,5.2891,5.2874,5.2876,5.2924,5.2926,5.2896,5.2981,5.2943,5.295,5.2978,5.2989,5.2998,5.2997,5.2853,0,0,0,0,0,5.2815,5.2844,5.2848,5.2895,5.2902,5.2897,5.2912,5.2902,5.2914,5.2918,5.2921,5.2932,5.2957,5.2973,5.2995,5.3052,5.3054,5.3079,5.3088,5.3096,5.3103,5.3135,5.3147,5.3019,5.3019,5.3019,0,0,5.2848,5.2855,5.2874,5.2904,5.2913,5.2943,5.2902,5.2934,5.2956,5.2923,5.2965,5.2968,5.2979,5.3031,5.3053,5.3034,5.3138,5.3103,5.3109,5.3111,5.3142,5.3154,5.3164,5.3023,5.3022,5.3022,0,0,5.2924,5.2932,5.2974,5.2984,5.2998,5.2995,5.3005,5.3014,5.3015,5.3057,5.3034,5.3059,5.31,5.311,5.3121,5.3203,5.3183,5.321,5.3259,5.329,5.33,5.3309,5.334,5.3351,5.3217,5.3217,5.3217,0,5.2963,5.3009,5.2996,5.3032,5.3046,5.3019,5.3061,5.3071,5.3091,5.3101,5.308,5.3134,5.3139,5.3194,5.3214,5.3223,5.3234,5.321,5.33,5.3309,5.3317,5.3346,5.3358,5.322,5.322,5.322,5.3219,0,5.3057,5.3089,5.312,5.3143,5.3161,5.3199,5.3192,5.3211,5.32,5.3199,5.3243,5.3249,5.3273,5.3285,5.3273,5.3338,5.3327,5.3303,5.3265,5.3333,5.336,5.3371,5.3225,5.3224,5.3223,5.3222,0,0,5.316,5.3178,5.319,5.3201,5.3216,5.324,5.3277,5.3302,5.332,5.3334,5.3366,5.3403,5.3382,5.3394,5.3383,5.3411,5.3478,5.3384,5.3384,5.3402,5.3551,5.357,5.3583,5.3464,5.3466,5.3468,5.3551,0,5.3238,5.3305,5.3296,5.3359,5.3389,5.3365,5.3397,5.341,5.341,5.3435,5.3434,5.3461,5.343,5.3438,5.3464,5.3464,5.3508,5.3458,5.3494,5.3495,5.3493,5.3597,5.3617,5.3695,5.3561,5.3563,5.3564,0,5.3337,5.3359,5.3426,5.3439,5.3451,5.3481,5.3504,5.3528,5.3541,5.3539,5.3554,5.3539,5.3576,5.3537,5.3589,5.3555,5.3569,5.3571,5.3574,5.3578,5.3535,5.3605,5.3719,5.3732,5.3581,5.3579,5.3578,0,5.3408,5.3454,5.3501,5.3511,5.3526,5.3548,5.3555,5.3566,5.3583,5.3602,5.3613,5.3636,5.3649,5.3667,5.3659,5.3631,5.3712,5.3672,5.3712,5.3712,5.3731,5.373,5.385,5.3738,5.3737,5.3737,5.3737,0,5.3497,5.3539,5.3534,5.3562,5.361,5.3599,5.3645,5.3649,5.366,5.3689,5.3668,5.3695,5.3682,5.3708,5.3701,5.3746,5.3751,5.3751,5.3749,5.3754,5.3754,5.3763,5.3758,5.374,5.374,5.3739,5.3739,0,5.3584,5.3582,5.3632,5.3643,5.3647,5.3682,5.3691,5.3718,5.3717,5.3754,5.3761,5.376,5.379,5.3783,5.3815,5.381,5.3867,5.3857,5.3863,5.3862,5.3903,5.39,5.4034,5.4052,5.3927,5.3928,5.3929,0,5.3642,5.3674,5.369,5.3709,5.3719,5.3749,5.3766,5.3756,5.3775,5.3795,5.3819,5.3848,5.3871,5.392,5.392,5.3945,5.3937,5.3982,5.394,5.3945,5.394,5.3939,5.3942,5.3991,5.3992,5.3994,5.3994,0,5.3744,5.3742,5.3769,5.3796,5.3818,5.3838,5.3856,5.3873,5.3864,5.3887,5.3918,5.3936,5.397,5.3999,5.4023,5.4028,5.4011,5.4008,5.4019,5.4025,5.4028,5.4029,5.3888,5.4005,5.4004,5.4003,5.4002,5.4002,5.3819,5.3848,5.3865,5.3896,5.3909,5.3927,5.3954,5.3957,5.3984,5.4013,5.4005,5.4041,5.4055,5.4085,5.4094,5.4122,5.4105,5.412,5.4124,5.4128,5.4135,5.4022,5.4126,5.4125,5.4125,5.4125,5.4124,0,5.3922,5.3932,5.3961,5.3989,5.4013,5.3996,5.4015,5.4037,5.407,5.4085,5.4108,5.4146,5.4174,5.4178,5.4204,5.4226,5.4219,5.4234,5.4233,5.4235,5.4147,5.4136,5.4239,5.4239,5.4239,5.4239,5.4239,5.4239,5.3979,5.4028,5.4028,5.4083,5.4092,5.413,5.4143,5.4159,5.4171,5.4215,5.4239,5.4242,5.4253,5.428,5.4306,5.4306,5.4317,5.4336,5.4333,5.4252,5.424,5.423,5.4219,5.4338,5.4338,5.4419,5.4419,5.442]}]]